Language: 


Des rapports , des résumés tant et plus, au choix de chacun....


Données Historiques de Météogheer
 
Journalier Rapport pour Mai 24, 2018 Unitée:  Métrique    Impériale   Les deux
Suivant Jour »
Journalier Hebdomadaire Mensuel Annuel Sur mesure
  Actuel: Max: Min: Moyenne:
Température: 19.1 °C 19.2 °C 14.6 °C 15.8 °C
Point de rosée: 15.0 °C 16.0 °C 13.0 °C 14.3 °C
Humidité: 75% 95% 75% 92%
Vent: 0.0km/h 11.6km/h 0.0km/h 2.8km/h
Rafales: 10.5km/h 14.0km/h - -
VentCalm - - SE
Pression: 1016.8 hPa 1018.8 hPa 1016.8 hPa -
Pluie: 5.3 mm      
Historical Graphs
 
 
Données tabulaires pour Mai 24, 2018
Heure Température Point de rosée Pression Vent Vent Rafales Humidité Pluie Taux (Horaire) Conditions
00:00 15.0 °C 14.0 °C 1018.8 hPa Calm   3.2 km/h 91% 0.0 mm
00:10 15.0 °C 14.0 °C 1018.8 hPa Calm     91% 0.0 mm
00:19 15.0 °C 14.0 °C 1018.8 hPa Calm     91% 0.0 mm
00:24 15.0 °C 14.0 °C 1018.8 hPa Calm   4.3 km/h 91% 0.0 mm
00:30 15.0 °C 14.0 °C 1018.8 hPa Calm   5.0 km/h 91% 0.0 mm
00:39 15.1 °C 14.0 °C 1018.2 hPa East 1.4 km/h 9.3 km/h 92% 0.0 mm
00:44 15.3 °C 14.0 °C 1018.2 hPa ESE 9.0 km/h 12.2 km/h 94% 0.3 mm
00:50 15.3 °C 14.0 °C 1018.2 hPa East 9.7 km/h 14.0 km/h 94% 1.3 mm
00:59 15.2 °C 14.0 °C 1018.8 hPa East 7.9 km/h 13.7 km/h 94% 2.8 mm
01:04 15.2 °C 14.0 °C 1018.8 hPa ENE 2.6 km/h 11.1 km/h 94% 2.8 mm
01:09 15.2 °C 14.0 °C 1018.2 hPa Calm   7.9 km/h 94% 3.0 mm
01:19 15.2 °C 14.0 °C 1018.2 hPa NE 1.4 km/h 4.7 km/h 94% 3.0 mm
01:24 15.2 °C 14.0 °C 1018.8 hPa Calm   6.4 km/h 94% 3.3 mm
01:30 14.8 °C 13.0 °C 1018.8 hPa Calm   6.4 km/h 92% 3.8 mm
01:39 14.8 °C 13.0 °C 1018.8 hPa Calm   1.4 km/h 92% 4.3 mm
01:44 14.8 °C 13.0 °C 1018.8 hPa NE 2.6 km/h 2.6 km/h 92% 4.1 mm
01:50 14.8 °C 13.0 °C 1018.8 hPa NNE 1.8 km/h 9.0 km/h 92% 3.0 mm
01:59 14.8 °C 13.0 °C 1018.8 hPa Calm   7.6 km/h 92% 1.8 mm
02:04 14.8 °C 13.0 °C 1018.8 hPa Calm   6.1 km/h 92% 2.3 mm
02:09 14.8 °C 13.0 °C 1018.8 hPa North 4.3 km/h 6.1 km/h 92% 1.8 mm
02:19 15.1 °C 14.0 °C 1018.8 hPa North 4.7 km/h 9.7 km/h 92% 1.8 mm
02:24 15.1 °C 14.0 °C 1018.2 hPa North 3.2 km/h 7.9 km/h 92% 1.3 mm
02:30 15.2 °C 14.0 °C 1018.2 hPa North 4.3 km/h 6.1 km/h 94% 1.5 mm
02:39 15.2 °C 14.0 °C 1018.2 hPa Calm   5.0 km/h 94% 1.0 mm
02:44 15.3 °C 14.0 °C 1018.2 hPa Calm   4.3 km/h 94% 1.0 mm
02:50 15.3 °C 14.0 °C 1018.2 hPa North 3.2 km/h 4.3 km/h 94% 0.8 mm
02:59 15.3 °C 14.0 °C 1018.2 hPa Calm   4.7 km/h 94% 0.8 mm
03:04 15.3 °C 14.0 °C 1018.2 hPa Calm   4.7 km/h 94% 0.3 mm
03:10 15.3 °C 14.0 °C 1018.2 hPa North 6.1 km/h 6.1 km/h 94% 0.3 mm
03:19 15.3 °C 14.0 °C 1018.2 hPa Calm   6.1 km/h 94% 0.3 mm
03:30 15.2 °C 14.0 °C 1018.2 hPa Calm   5.0 km/h 94% 0.0 mm
03:39 15.2 °C 14.0 °C 1018.2 hPa Calm   5.5 km/h 94% 0.0 mm
03:44 15.2 °C 14.0 °C 1018.2 hPa Calm   6.9 km/h 94% 0.0 mm
03:49 15.2 °C 14.0 °C 1018.2 hPa Calm   6.9 km/h 94% 0.0 mm
03:59 15.2 °C 14.0 °C 1018.2 hPa North 1.8 km/h 4.0 km/h 94% 0.0 mm
04:04 15.1 °C 14.0 °C 1018.2 hPa NNE 1.4 km/h 2.1 km/h 94% 0.0 mm
04:10 15.1 °C 14.0 °C 1018.2 hPa Calm   1.8 km/h 94% 0.0 mm
04:19 15.0 °C 14.0 °C 1018.2 hPa NNE 5.8 km/h 5.8 km/h 94% 0.0 mm
04:24 15.1 °C 14.0 °C 1018.2 hPa Calm   5.8 km/h 94% 0.0 mm
04:30 15.1 °C 14.0 °C 1018.2 hPa Calm   5.8 km/h 94% 0.0 mm
04:39 15.1 °C 14.0 °C 1018.2 hPa Calm     94% 0.0 mm
04:44 15.1 °C 14.0 °C 1018.2 hPa NE 4.7 km/h 4.7 km/h 94% 0.0 mm
04:50 15.0 °C 14.0 °C 1018.2 hPa Calm   4.7 km/h 94% 0.0 mm
05:00 15.0 °C 14.0 °C 1018.2 hPa North 4.0 km/h 5.0 km/h 94% 0.0 mm
05:09 14.9 °C 14.0 °C 1018.2 hPa NNE 4.7 km/h 6.1 km/h 95% 0.0 mm
05:14 14.9 °C 14.0 °C 1018.2 hPa North 2.1 km/h 6.1 km/h 95% 0.0 mm
05:19 14.9 °C 14.0 °C 1018.2 hPa North 4.0 km/h 6.4 km/h 95% 0.0 mm
05:29 14.9 °C 14.0 °C 1018.2 hPa NNE 4.0 km/h 8.7 km/h 95% 0.0 mm
05:34 14.9 °C 14.0 °C 1018.2 hPa North 5.5 km/h 8.7 km/h 95% 0.0 mm
05:40 14.8 °C 14.0 °C 1018.2 hPa Calm   6.4 km/h 95% 0.0 mm
05:49 14.7 °C 14.0 °C 1018.2 hPa Calm   6.4 km/h 95% 0.0 mm
05:54 14.7 °C 14.0 °C 1018.2 hPa Calm   6.1 km/h 95% 0.0 mm
06:00 14.7 °C 14.0 °C 1018.2 hPa Calm   2.6 km/h 95% 0.0 mm
06:09 14.6 °C 14.0 °C 1018.2 hPa Calm     95% 0.0 mm
06:14 14.6 °C 14.0 °C 1018.2 hPa Calm     95% 0.0 mm
06:20 14.6 °C 14.0 °C 1018.2 hPa Calm     95% 0.0 mm
06:29 14.6 °C 14.0 °C 1018.2 hPa Calm     95% 0.0 mm
06:34 14.6 °C 14.0 °C 1018.2 hPa Calm     95% 0.0 mm
06:40 14.6 °C 14.0 °C 1018.2 hPa Calm     95% 0.0 mm
06:49 15.3 °C 15.0 °C 1018.2 hPa Calm     95% 0.0 mm
06:54 15.4 °C 15.0 °C 1018.2 hPa Calm   1.4 km/h 95% 0.0 mm
07:00 15.5 °C 15.0 °C 1018.2 hPa Calm   1.4 km/h 95% 0.0 mm
07:09 15.7 °C 15.0 °C 1018.2 hPa Calm     95% 0.0 mm
07:14 16.0 °C 15.0 °C 1018.2 hPa Calm   1.8 km/h 95% 0.0 mm
07:19 16.0 °C 15.0 °C 1018.2 hPa Calm   5.5 km/h 95% 0.0 mm
07:29 16.7 °C 16.0 °C 1018.2 hPa Calm   5.8 km/h 95% 0.0 mm
07:39 16.9 °C 16.0 °C 1018.2 hPa North 8.7 km/h 9.3 km/h 94% 0.0 mm
07:44 16.8 °C 16.0 °C 1018.2 hPa Calm   9.3 km/h 94% 0.0 mm
07:49 16.9 °C 16.0 °C 1018.2 hPa North 4.3 km/h 9.0 km/h 94% 0.0 mm
07:59 17.0 °C 16.0 °C 1016.8 hPa Calm   7.6 km/h 92% 0.0 mm
08:04 17.1 °C 16.0 °C 1016.8 hPa NNE 7.9 km/h 8.7 km/h 92% 0.0 mm
08:09 17.0 °C 16.0 °C 1016.8 hPa NE 5.5 km/h 9.3 km/h 91% 0.0 mm
08:19 17.3 °C 16.0 °C 1016.8 hPa NNE 6.9 km/h 11.9 km/h 91% 0.0 mm
08:29 17.4 °C 15.0 °C 1018.2 hPa NE 8.7 km/h 12.2 km/h 88% 0.0 mm
08:39 17.5 °C 15.0 °C 1016.8 hPa NNE 9.3 km/h 12.6 km/h 86% 0.0 mm
08:44 17.8 °C 15.0 °C 1016.8 hPa NNE 11.6 km/h 12.6 km/h 86% 0.0 mm
08:50 17.8 °C 15.0 °C 1016.8 hPa NNE 9.0 km/h 12.6 km/h 83% 0.0 mm
08:59 17.6 °C 15.0 °C 1018.2 hPa NNE 10.5 km/h 10.5 km/h 82% 0.0 mm
09:04 17.5 °C 15.0 °C 1018.2 hPa NE 6.9 km/h 10.5 km/h 82% 0.0 mm
09:09 17.5 °C 15.0 °C 1016.8 hPa NE 4.3 km/h 10.1 km/h 82% 0.0 mm
09:19 17.8 °C 15.0 °C 1016.8 hPa NNE 4.3 km/h 8.7 km/h 82% 0.0 mm
09:24 18.2 °C 15.0 °C 1016.8 hPa NE 9.3 km/h 10.5 km/h 81% 0.0 mm
09:29 18.5 °C 15.0 °C 1016.8 hPa NNE 11.6 km/h 11.9 km/h 81% 0.0 mm
09:39 18.8 °C 15.0 °C 1016.8 hPa NNE 5.5 km/h 11.6 km/h 79% 0.0 mm
09:44 18.8 °C 15.0 °C 1016.8 hPa NNE 6.9 km/h 10.1 km/h 79% 0.0 mm
09:49 18.9 °C 15.0 °C 1016.8 hPa NE 7.9 km/h 8.7 km/h 79% 0.0 mm
09:59 19.2 °C 15.0 °C 1016.8 hPa North 6.9 km/h 10.5 km/h 76% 0.0 mm
10:09 19.1 °C 15.0 °C 1016.8 hPa Calm   10.5 km/h 75% 0.0 mm
Données Historique de Météo Turbie

Mise a jour : 24/05/2018 10:14:16
Généré par Cumulus 1.9.4 (1099)